Wind_Speed
59 60 60 58 57 55 55 54 53 52 51 50 47 48 47 46 45 43 39 44 43 41 39 38 37 36 35 32 28 25 21 12 14 17 17 16 17 18 15 15 15 14 13 11 12
60 61 61 63 63 60 59 57 56 56 55 53 52 50 48 49 49 46 47 47 46 44 43 42 41 42 41 37 35 33 24 17 18 20 19 18 17 16 14 14 17 16 15 15 15
58 60 63 63 64 66 64 62 60 59 59 57 56 54 52 51 51 51 52 51 50 47 47 46 45 45 43 41 39 37 27 26 25 26 23 20 18 16 14 15 17 15 15 17 18
62 63 62 62 63 66 68 67 64 64 63 61 58 59 57 54 55 54 55 55 53 52 50 48 47 47 46 44 43 42 35 32 32 32 30 26 21 19 15 19 17 16 17 17 19
66 66 66 66 63 65 68 70 70 68 67 66 64 63 61 59 56 57 55 57 57 56 54 53 51 49 48 47 48 46 40 39 40 39 36 32 28 24 16 22 19 19 18 19 18
67 68 68 69 69 67 68 70 72 74 72 69 68 67 66 64 60 62 60 60 61 59 59 56 54 52 53 51 51 48 46 44 44 43 39 36 35 31 19 27 26 21 20 20 20
71 70 70 69 70 71 71 71 74 74 77 75 72 72 72 67 64 64 63 63 64 63 61 59 58 57 56 54 54 52 50 49 47 43 41 40 40 28 29 33 31 27 24 23 22
77 73 70 69 69 72 74 73 76 78 77 80 79 75 76 71 68 67 68 66 65 65 64 63 62 61 61 59 57 56 53 54 47 42 43 44 38 30 34 36 36 36 32 28 26
78 74 72 68 67 70 72 77 78 80 82 81 82 80 81 78 72 70 70 68 67 66 66 66 67 65 64 63 62 60 59 55 46 44 45 44 39 33 37 38 39 40 38 32 30
78 74 72 70 65 66 69 73 79 81 82 86 87 84 85 81 72 73 73 72 72 70 69 69 71 70 68 67 64 62 57 53 50 48 46 48 45 37 41 42 42 42 40 37 33
75 71 69 66 62 62 66 69 75 79 79 77 85 85 83 82 78 75 76 77 76 76 75 74 73 71 67 66 65 62 58 56 53 52 54 55 53 47 43 44 43 42 40 39 35
67 64 62 62 61 60 60 64 68 73 80 75 84 87 86 89 88 80 77 78 78 77 75 76 73 70 69 68 67 65 64 62 61 58 57 56 54 49 45 43 43 42 42 39 37
61 60 59 60 61 59 56 56 63 63 74 75 77 87 84 87 88 83 76 80 79 80 78 78 72 72 70 69 69 67 65 62 61 62 61 60 57 55 50 48 47 43 40 38 35
56 55 56 57 60 54 52 56 61 52 63 77 69 77 87 85 93 83 78 77 82 80 79 79 75 75 73 71 69 69 65 62 62 62 62 61 66 61 56 51 50 48 44 39 40
52 53 53 52 52 50 49 53 50 41 63 69 68 68 78 89 88 84 77 78 81 80 82 82 82 80 78 74 70 69 64 62 62 64 66 66 68 61 57 55 52 48 47 45 41
50 48 47 46 48 42 45 45 48 55 65 63 64 59 62 77 85 84 79 77 78 80 78 75 76 75 76 71 67 66 66 64 63 64 70 66 65 64 61 57 53 50 49 46 44
45 43 43 45 40 39 41 43 54 65 67 59 55 50 51 50 73 80 80 77 78 81 82 81 79 79 76 75 72 71 69 66 68 71 75 74 71 67 62 62 60 52 47 45 43
41 40 44 39 38 42 39 47 61 66 57 49 44 39 41 40 46 69 77 75 69 69 76 77 79 80 81 79 74 71 72 73 75 76 74 75 73 70 63 62 59 57 44 40 44
37 39 44 36 36 40 38 52 62 51 46 46 41 36 29 30 35 46 70 73 69 71 71 73 75 75 74 70 67 69 70 67 65 68 69 71 69 66 64 61 58 56 53 47 47
40 32 40 38 38 38 46 56 49 46 51 39 31 30 32 34 37 36 51 64 64 64 62 65 64 67 67 65 66 66 60 64 66 68 70 71 70 68 66 64 60 57 56 50 43
34 49 36 38 35 41 53 49 55 43 37 29 30 30 28 32 36 38 40 48 56 58 58 56 62 64 61 66 68 65 64 65 62 60 64 67 69 64 62 61 61 58 54 51 43
45 49 41 39 45 45 43 42 47 46 38 32 28 29 31 33 37 40 38 36 40 47 54 54 53 56 59 60 59 58 56 55 59 63 67 69 70 66 64 60 60 57 53 50 46
39 36 41 45 46 49 41 44 34 33 36 31 29 28 26 29 36 38 34 32 39 43 48 51 55 55 55 56 57 57 57 59 56 56 58 56 63 58 58 58 58 57 53 49 46
45 47 53 51 43 55 34 38 33 36 38 29 26 26 25 30 35 34 28 31 40 45 45 48 53 52 55 51 50 55 57 55 54 56 55 58 55 56 53 51 50 48 48 46 43
54 56 52 56 45 48 33 40 35 36 32 29 27 20 15 22 38 39 37 28 37 44 46 44 47 49 48 45 48 46 47 51 55 52 54 46 48 49 50 49 50 49 46 44 41
54 54 53 44 47 41 40 41 35 34 33 31 26 23 19 20 30 42 41 36 30 43 48 47 37 46 49 48 47 45 44 46 48 45 46 45 46 44 49 52 52 48 47 45 44
56 50 36 44 47 41 41 35 36 35 34 31 28 27 22 22 23 37 39 32 33 31 44 48 48 42 43 48 48 54 48 45 46 45 45 48 40 45 50 49 49 47 46 45 43
Wind_Direction
265 264 263 260 257 253 251 251 252 250 249 248 246 244 239 239 242 243 241 239 240 241 242 244 247 248 247 247 245 245 243 242 240 244 242 239 241 245 244 240 238 239 244 245 246
266 264 262 263 260 256 255 251 249 250 249 248 246 244 244 237 237 241 242 242 242 240 239 239 241 244 247 246 247 248 245 239 245 247 245 243 245 249 251 247 246 239 238 242 246
270 265 263 260 260 259 255 253 251 249 248 247 246 245 243 240 236 237 238 240 243 242 241 238 240 246 246 248 249 249 245 244 240 244 247 244 244 250 254 258 257 259 252 248 249
276 274 267 261 258 258 256 253 249 250 249 247 245 245 244 241 237 235 236 239 240 241 242 242 242 242 246 247 249 248 245 244 245 245 246 247 244 245 249 257 262 266 266 260 256
277 274 273 269 261 256 254 253 250 247 247 247 244 244 244 241 239 239 236 237 238 240 240 240 241 242 243 246 246 247 244 242 242 244 244 246 247 244 247 260 256 255 261 264 265
282 278 273 270 265 260 254 252 249 248 244 243 244 242 242 243 239 240 237 236 238 237 239 239 240 241 243 243 245 248 244 242 243 244 246 248 248 247 246 258 256 256 259 260 264
282 280 277 271 266 260 256 251 250 247 245 242 239 241 241 242 239 240 239 237 236 237 238 239 238 240 241 243 244 246 246 246 243 245 248 251 248 253 244 248 259 258 256 262 265
282 280 275 270 266 261 255 251 246 249 245 242 241 238 242 239 236 237 239 238 237 237 238 239 239 239 239 240 242 244 246 246 245 246 250 249 248 249 249 252 253 256 255 255 260
279 277 274 269 264 261 255 251 247 244 247 244 239 238 239 238 235 234 235 237 237 236 236 237 238 238 238 238 241 241 243 246 248 248 250 251 252 245 250 250 253 256 256 253 254
277 276 273 269 264 261 257 251 247 243 243 244 242 237 238 237 232 233 232 233 235 235 235 235 236 236 237 238 240 242 244 249 249 248 251 252 252 245 246 248 249 253 257 259 256
277 275 274 271 267 262 260 256 249 244 243 244 242 238 235 238 235 229 230 230 231 232 234 233 236 240 241 242 243 244 244 246 246 244 245 247 248 246 245 246 250 253 255 257 257
274 273 271 268 264 260 255 255 253 248 245 243 241 237 234 234 233 228 227 232 232 233 233 235 236 238 239 239 240 241 243 243 245 245 245 246 248 248 245 247 249 250 254 256 258
270 268 266 265 261 258 254 249 253 251 251 243 239 238 233 234 234 232 229 227 229 230 232 235 238 238 238 239 241 241 242 243 244 246 247 248 250 250 246 244 247 250 250 255 259
266 265 264 261 259 256 253 243 243 250 258 243 241 236 234 233 233 232 230 228 230 229 229 230 232 234 236 236 239 242 241 242 243 245 246 248 251 248 248 247 247 249 251 250 253
265 265 265 261 256 251 246 243 240 239 255 250 248 237 233 232 233 234 234 231 228 230 230 228 227 230 231 234 236 240 240 242 242 242 243 243 249 248 247 250 250 251 251 252 251
265 265 259 254 250 247 244 238 227 231 240 248 249 243 238 235 232 230 233 233 230 232 231 231 231 231 232 233 235 237 238 238 240 242 243 244 248 246 252 251 249 249 248 249 251
264 256 251 248 247 236 236 225 216 236 238 239 250 253 248 244 235 231 233 235 228 228 229 228 230 229 229 231 231 231 232 235 236 237 242 243 243 246 250 254 255 251 251 253 254
253 247 246 241 239 234 234 226 221 235 238 238 256 255 260 250 239 231 234 235 233 233 235 235 232 230 228 230 231 233 233 235 236 237 239 241 244 246 249 256 259 262 253 247 248
244 242 240 238 235 233 230 224 219 235 238 245 242 241 246 246 243 236 233 235 235 236 234 234 234 232 234 237 238 236 232 235 239 241 244 245 247 248 249 253 257 258 259 252 247
230 241 234 233 225 231 225 222 227 235 235 233 233 241 257 256 248 241 233 233 231 233 234 237 239 238 238 238 238 237 238 238 236 239 242 244 245 246 247 251 254 256 258 257 250
233 241 236 226 226 223 232 218 223 231 223 226 235 240 245 247 238 235 237 238 231 230 233 237 239 237 236 235 236 235 233 234 236 241 243 245 246 246 248 250 253 256 254 256 257
232 235 221 207 223 222 220 229 221 224 230 223 220 234 244 246 227 234 234 231 231 224 224 230 234 236 240 239 239 238 239 241 243 242 241 242 242 244 246 247 252 255 259 258 256
217 217 222 217 225 221 215 217 221 217 212 211 224 231 243 249 223 222 229 223 219 217 213 214 222 227 232 232 231 232 235 237 237 237 237 242 241 245 249 251 253 254 256 259 256
223 229 215 220 221 208 213 207 210 203 207 210 219 228 233 226 215 217 233 231 216 213 212 215 220 225 230 238 239 236 239 240 239 238 240 240 242 243 244 248 254 257 256 257 258
217 220 215 210 210 202 211 208 214 206 209 212 215 221 239 225 217 217 230 219 221 212 209 213 223 222 223 225 231 232 231 233 235 239 238 245 242 243 246 248 249 249 250 253 252
210 213 209 211 200 199 202 210 200 206 210 217 221 228 239 243 225 222 222 227 222 215 214 212 217 225 218 218 224 226 228 229 231 234 238 235 233 233 236 237 241 246 247 245 245
198 196 202 192 194 205 209 199 202 211 214 219 216 229 237 256 241 223 219 219 228 232 218 218 217 217 219 215 218 223 220 227 230 230 231 228 229 227 232 236 238 240 242 243 244
Height
5734 5737 5738 5741 5744 5746 5748 5752 5755 5759 5761 5764 5768 5772 5774 5778 5782 5786 5791 5789 5792 5796 5800 5803 5806 5808 5810 5813 5815 5816 5819 5824 5824 5825 5827 5828 5829 5830 5831 5832 5832 5834 5835 5837 5837
5719 5720 5723 5726 5728 5732 5735 5738 5742 5744 5748 5753 5756 5760 5764 5768 5772 5777 5778 5781 5784 5787 5792 5793 5797 5800 5802 5806 5808 5810 5815 5820 5821 5821 5822 5824 5825 5826 5828 5829 5829 5831 5833 5833 5834
5702 5705 5706 5710 5712 5715 5718 5723 5726 5730 5733 5738 5743 5747 5751 5757 5763 5766 5767 5770 5774 5778 5781 5785 5787 5792 5795 5799 5802 5804 5812 5813 5815 5816 5817 5819 5821 5823 5825 5825 5826 5828 5830 5830 5830
5683 5685 5688 5691 5694 5697 5700 5704 5709 5713 5718 5723 5729 5732 5737 5744 5749 5754 5757 5760 5765 5767 5771 5775 5779 5782 5788 5791 5794 5797 5803 5806 5808 5809 5812 5814 5817 5819 5821 5820 5823 5825 5825 5826 5827
5664 5666 5668 5670 5675 5678 5681 5685 5688 5694 5700 5707 5712 5717 5723 5730 5740 5742 5746 5749 5753 5756 5761 5764 5768 5773 5777 5781 5784 5787 5795 5797 5797 5800 5804 5808 5811 5813 5818 5816 5819 5820 5821 5823 5824
5643 5645 5649 5650 5653 5658 5661 5666 5670 5673 5679 5686 5694 5700 5706 5715 5726 5726 5733 5737 5740 5745 5749 5753 5758 5762 5765 5768 5773 5780 5784 5787 5788 5792 5796 5801 5803 5806 5815 5810 5813 5816 5817 5818 5819
5623 5625 5627 5630 5632 5636 5640 5645 5650 5653 5658 5664 5671 5680 5688 5702 5710 5713 5718 5723 5726 5732 5738 5742 5746 5751 5755 5759 5762 5767 5773 5776 5780 5786 5789 5792 5793 5806 5807 5804 5806 5810 5811 5813 5815
5598 5601 5606 5608 5611 5614 5618 5623 5626 5632 5636 5641 5649 5658 5672 5685 5692 5698 5700 5708 5714 5719 5725 5730 5734 5739 5742 5747 5751 5756 5761 5762 5772 5780 5781 5783 5788 5798 5798 5799 5800 5801 5805 5808 5809
5575 5578 5582 5587 5589 5591 5597 5600 5603 5609 5614 5620 5627 5636 5651 5664 5674 5680 5684 5691 5698 5704 5710 5716 5721 5725 5730 5734 5739 5743 5746 5753 5766 5771 5771 5773 5779 5788 5789 5790 5792 5793 5796 5801 5803
5552 5554 5558 5563 5569 5570 5573 5576 5578 5584 5594 5596 5604 5617 5633 5645 5657 5661 5666 5673 5679 5687 5694 5699 5703 5709 5715 5718 5723 5730 5742 5750 5756 5762 5762 5762 5767 5778 5777 5779 5782 5785 5789 5794 5797
5531 5534 5537 5541 5546 5552 5552 5550 5556 5566 5573 5579 5585 5600 5610 5620 5635 5644 5647 5652 5659 5667 5675 5680 5686 5696 5707 5712 5719 5725 5731 5737 5742 5746 5748 5750 5754 5764 5768 5769 5773 5778 5781 5785 5791
5510 5514 5518 5522 5525 5528 5530 5527 5538 5542 5545 5553 5562 5575 5587 5591 5602 5619 5629 5637 5644 5654 5659 5666 5674 5685 5693 5697 5702 5708 5714 5721 5726 5732 5735 5739 5745 5751 5758 5760 5763 5768 5772 5777 5781
5492 5495 5499 5503 5502 5507 5513 5519 5520 5524 5521 5533 5543 5552 5572 5570 5583 5598 5612 5619 5624 5632 5642 5650 5669 5671 5677 5685 5690 5695 5701 5708 5714 5718 5723 5727 5732 5738 5746 5749 5753 5757 5763 5766 5773
5474 5477 5482 5483 5483 5491 5497 5502 5506 5513 5501 5508 5524 5536 5543 5559 5554 5580 5593 5603 5607 5618 5625 5630 5646 5652 5659 5667 5676 5681 5690 5695 5697 5702 5709 5716 5710 5723 5731 5738 5743 5747 5752 5758 5761
5456 5460 5462 5463 5466 5474 5483 5486 5493 5498 5479 5494 5504 5517 5532 5531 5555 5563 5578 5580 5591 5601 5602 5616 5623 5629 5639 5656 5661 5669 5677 5681 5683 5685 5688 5695 5696 5710 5720 5725 5733 5740 5743 5746 5751
5440 5443 5445 5448 5453 5463 5464 5470 5480 5478 5462 5478 5490 5507 5514 5521 5534 5547 5551 5562 5576 5580 5586 5601 5610 5617 5630 5639 5648 5654 5659 5664 5668 5672 5672 5685 5690 5700 5706 5715 5721 5726 5730 5734 5738
5424 5427 5430 5433 5442 5448 5451 5456 5460 5452 5460 5471 5485 5493 5502 5508 5518 5529 5535 5539 5550 5558 5567 5580 5588 5599 5609 5617 5626 5632 5639 5645 5650 5650 5658 5666 5674 5690 5696 5699 5704 5715 5722 5725 5729
5408 5413 5418 5422 5427 5434 5439 5442 5440 5443 5459 5471 5480 5485 5488 5497 5501 5512 5519 5525 5537 5551 5563 5572 5578 5586 5594 5600 5611 5618 5622 5630 5631 5636 5645 5648 5662 5675 5687 5688 5693 5697 5709 5714 5716
5395 5399 5403 5411 5417 5423 5427 5426 5429 5447 5459 5466 5472 5474 5480 5484 5490 5497 5502 5510 5528 5540 5549 5556 5562 5574 5584 5594 5601 5606 5606 5626 5622 5626 5633 5643 5657 5665 5671 5678 5680 5684 5691 5700 5703
5382 5384 5390 5400 5406 5412 5415 5417 5428 5441 5450 5457 5463 5466 5473 5478 5479 5484 5491 5495 5513 5525 5539 5545 5554 5564 5575 5578 5580 5590 5613 5605 5607 5612 5619 5630 5640 5651 5657 5663 5667 5672 5676 5684 5692
5371 5372 5382 5390 5396 5399 5401 5415 5425 5434 5443 5449 5454 5458 5466 5467 5469 5474 5480 5489 5503 5518 5526 5535 5541 5549 5552 5553 5565 5578 5581 5587 5597 5601 5609 5620 5626 5639 5646 5651 5655 5657 5664 5670 5677
5356 5360 5372 5378 5385 5389 5397 5408 5420 5429 5436 5442 5447 5453 5457 5458 5460 5465 5471 5482 5493 5504 5507 5522 5526 5530 5539 5547 5556 5565 5570 5581 5584 5592 5599 5604 5611 5624 5632 5640 5640 5644 5649 5657 5665
5348 5354 5360 5368 5372 5381 5394 5405 5415 5422 5429 5436 5440 5445 5448 5449 5452 5457 5464 5474 5479 5490 5495 5504 5506 5515 5521 5530 5539 5547 5558 5564 5572 5579 5582 5593 5602 5613 5620 5625 5628 5632 5638 5643 5651
5338 5340 5350 5358 5367 5381 5389 5401 5410 5417 5424 5430 5434 5437 5439 5440 5444 5451 5459 5464 5470 5477 5488 5493 5495 5501 5511 5527 5538 5540 5548 5555 5561 5565 5574 5579 5597 5603 5609 5615 5617 5621 5625 5631 5637
5325 5329 5342 5349 5360 5376 5385 5397 5404 5413 5419 5424 5428 5432 5434 5435 5438 5444 5449 5455 5462 5467 5474 5480 5485 5492 5505 5515 5518 5528 5536 5542 5545 5556 5559 5576 5584 5594 5598 5604 5604 5608 5613 5618 5624
5316 5328 5341 5354 5364 5375 5383 5393 5401 5408 5414 5418 5422 5426 5429 5431 5434 5438 5442 5448 5451 5459 5464 5471 5479 5485 5491 5501 5507 5515 5523 5529 5536 5544 5551 5562 5570 5580 5583 5585 5589 5597 5603 5606 5611
5312 5328 5342 5352 5363 5372 5380 5389 5396 5402 5407 5411 5415 5419 5423 5426 5427 5430 5435 5441 5446 5451 5457 5462 5469 5476 5483 5492 5498 5496 5511 5521 5528 5534 5541 5547 5567 5567 5571 5575 5580 5585 5590 5594 5600